When you browse on this site, cookies collect data to enhance your experience and personalize the content and advertising you see.
Visit our Privacy Policy to learn more. By continuing to use the site, you agree to this use of cookies and data.
  • în România
  • Lista ţărilor
  • Pe 7 zile
  • Temperatura apei
  • Meteo pe hartă
  • Widget-uri
  • user-avatar
    Intrare

    Meteo pe oră la Salvador

    Astăzi, 22 Septembrie, Duminică

    Timp Temperatura Precipitaţii Vânt Presiune Umiditate
    00:00 +24°C° 0 mm 3 m/s 757 mmHg 82%
    01:00 +22°C° 0 mm 3 m/s 757 mmHg 82%
    02:00 +22°C° 0 mm 3 m/s 757 mmHg 83%
    03:00 +22°C° 0 mm 3 m/s 757 mmHg 83%
    04:00 +22°C° 0 mm 3 m/s 757 mmHg 83%
    05:00 +22°C° 0 mm 3 m/s 757 mmHg 82%
    06:00 +24°C° 0 mm 3 m/s 758 mmHg 82%
    07:00 +25°C° 0 mm 3 m/s 758 mmHg 75%
    08:00 +26°C° 0 mm 3 m/s 759 mmHg 68%
    09:00 +28°C° 0 mm 3 m/s 759 mmHg 61%
    10:00 +28°C° 0 mm 4 m/s 759 mmHg 60%
    11:00 +28°C° 0 mm 4 m/s 758 mmHg 58%
    12:00 +29°C° 0 mm 4 m/s 758 mmHg 57%
    13:00 +28°C° 0 mm 4 m/s 758 mmHg 59%
    14:00 +28°C° 0 mm 5 m/s 757 mmHg 60%
    15:00 +28°C° 0 mm 5 m/s 757 mmHg 62%
    16:00 +27°C° 0 mm 5 m/s 757 mmHg 67%
    17:00 +26°C° 0 mm 5 m/s 757 mmHg 72%
    18:00 +26°C° 0 mm 5 m/s 758 mmHg 77%
    19:00 +25°C° 0 mm 4 m/s 758 mmHg 79%
    20:00 +25°C° 0 mm 4 m/s 759 mmHg 80%
    21:00 +25°C° 0 mm 4 m/s 759 mmHg 82%
    22:00 +25°C° 0 mm 4 m/s 759 mmHg 83%
    23:00 +25°C° 0 mm 4 m/s 759 mmHg 83%

    Mâine, 23 Septembrie, Luni

    Timp Temperatura Precipitaţii Vânt Presiune Umiditate
    00:00 +25°C° 0 mm 4 m/s 759 mmHg 84%
    01:00 +25°C° 0.4 mm 4 m/s 758 mmHg 86%
    02:00 +23°C° 0.4 mm 5 m/s 758 mmHg 88%
    03:00 +23°C° 0.4 mm 5 m/s 758 mmHg 90%
    04:00 +23°C° 1.1 mm 5 m/s 758 mmHg 89%
    05:00 +24°C° 1.1 mm 6 m/s 759 mmHg 89%
    06:00 +24°C° 1.1 mm 6 m/s 759 mmHg 89%
    07:00 +24°C° 0.9 mm 6 m/s 759 mmHg 88%
    08:00 +24°C° 0.9 mm 6 m/s 760 mmHg 87%
    09:00 +24°C° 0.9 mm 6 m/s 760 mmHg 86%
    10:00 +24°C° 0.9 mm 6 m/s 760 mmHg 86%
    11:00 +24°C° 0.9 mm 6 m/s 760 mmHg 85%
    12:00 +24°C° 0.9 mm 6 m/s 760 mmHg 85%
    13:00 +26°C° 0.3 mm 6 m/s 760 mmHg 83%
    14:00 +26°C° 0.3 mm 6 m/s 759 mmHg 82%
    15:00 +26°C° 0.3 mm 6 m/s 759 mmHg 80%
    16:00 +26°C° 0.1 mm 6 m/s 759 mmHg 81%
    17:00 +24°C° 0.1 mm 6 m/s 759 mmHg 83%
    18:00 +24°C° 0.1 mm 6 m/s 759 mmHg 84%
    19:00 +24°C° 0.1 mm 6 m/s 760 mmHg 84%
    20:00 +24°C° 0.1 mm 6 m/s 760 mmHg 84%
    21:00 +24°C° 0.1 mm 6 m/s 760 mmHg 84%
    22:00 +24°C° 0.1 mm 6 m/s 760 mmHg 83%
    23:00 +24°C° 0.1 mm 6 m/s 760 mmHg 83%

    Poimâine, 24 Septembrie, Marţi

    Timp Temperatura Precipitaţii Vânt Presiune Umiditate
    00:00 +24°C° 0.1 mm 7 m/s 760 mmHg 83%
    01:00 +23°C° 0.1 mm 7 m/s 760 mmHg 83%
    02:00 +23°C° 0.1 mm 7 m/s 760 mmHg 83%
    03:00 +23°C° 0.1 mm 7 m/s 759 mmHg 84%
    04:00 +23°C° 0.1 mm 7 m/s 760 mmHg 83%
    05:00 +23°C° 0.1 mm 7 m/s 760 mmHg 82%
    06:00 +24°C° 0.1 mm 7 m/s 760 mmHg 80%
    07:00 +26°C° 0 mm 7 m/s 760 mmHg 76%
    08:00 +26°C° 0 mm 6 m/s 761 mmHg 71%
    09:00 +27°C° 0 mm 6 m/s 761 mmHg 66%
    10:00 +28°C° 0 mm 6 m/s 761 mmHg 65%
    11:00 +28°C° 0 mm 6 m/s 760 mmHg 63%
    12:00 +28°C° 0 mm 6 m/s 760 mmHg 62%
    13:00 +28°C° 0 mm 6 m/s 759 mmHg 63%
    14:00 +28°C° 0 mm 6 m/s 759 mmHg 63%
    15:00 +28°C° 0 mm 6 m/s 758 mmHg 64%
    16:00 +27°C° 0 mm 5 m/s 758 mmHg 68%
    17:00 +26°C° 0 mm 5 m/s 759 mmHg 72%
    18:00 +25°C° 0 mm 5 m/s 759 mmHg 76%
    19:00 +25°C° 0 mm 5 m/s 759 mmHg 78%
    20:00 +25°C° 0 mm 5 m/s 760 mmHg 79%
    21:00 +25°C° 0 mm 5 m/s 760 mmHg 81%
    22:00 +25°C° 0.1 mm 5 m/s 760 mmHg 81%
    23:00 +23°C° 0.1 mm 5 m/s 760 mmHg 82%

    25 Septembrie, Miercuri

    Timp Temperatura Precipitaţii Vânt Presiune Umiditate
    00:00 +23°C° 0.1 mm 5 m/s 759 mmHg 82%
    01:00 +23°C° 0.1 mm 5 m/s 759 mmHg 82%
    02:00 +23°C° 0.1 mm 4 m/s 759 mmHg 83%
    03:00 +23°C° 0.1 mm 4 m/s 759 mmHg 83%
    04:00 +23°C° 0.1 mm 4 m/s 759 mmHg 83%
    05:00 +23°C° 0.1 mm 4 m/s 759 mmHg 83%
    06:00 +23°C° 0.1 mm 4 m/s 759 mmHg 83%
    07:00 +25°C° 0.3 mm 3 m/s 759 mmHg 80%
    08:00 +26°C° 0.3 mm 3 m/s 760 mmHg 77%
    09:00 +26°C° 0.3 mm 3 m/s 760 mmHg 74%
    10:00 +27°C° 0.4 mm 4 m/s 759 mmHg 75%
    11:00 +27°C° 0.4 mm 4 m/s 759 mmHg 75%
    12:00 +27°C° 0.4 mm 5 m/s 758 mmHg 76%
    13:00 +27°C° 0.1 mm 5 m/s 758 mmHg 75%
    14:00 +27°C° 0.1 mm 5 m/s 757 mmHg 74%
    15:00 +27°C° 0.1 mm 6 m/s 757 mmHg 73%
    16:00 +26°C° 0 mm 5 m/s 757 mmHg 75%
    17:00 +26°C° 0 mm 5 m/s 757 mmHg 77%
    18:00 +25°C° 0 mm 5 m/s 757 mmHg 78%
    19:00 +25°C° 0 mm 5 m/s 758 mmHg 79%
    20:00 +23°C° 0 mm 5 m/s 758 mmHg 79%
    21:00 +23°C° 0 mm 5 m/s 759 mmHg 80%
    22:00 +23°C° 0 mm 4 m/s 759 mmHg 80%
    23:00 +24°C° 0 mm 3 m/s 758 mmHg 80%

    26 Septembrie, Joi

    Timp Temperatura Precipitaţii Vânt Presiune Umiditate
    00:00 +24°C° 0 mm 3 m/s 758 mmHg 81%
    01:00 +24°C° 0 mm 3 m/s 758 mmHg 82%
    02:00 +23°C° 0 mm 2 m/s 758 mmHg 83%
    03:00 +23°C° 0 mm 2 m/s 757 mmHg 84%
    04:00 +23°C° 0.1 mm 2 m/s 758 mmHg 84%
    05:00 +22°C° 0.1 mm 3 m/s 758 mmHg 84%
    06:00 +22°C° 0.1 mm 3 m/s 758 mmHg 85%
    07:00 +25°C° 0 mm 3 m/s 759 mmHg 79%
    08:00 +26°C° 0 mm 3 m/s 759 mmHg 74%
    09:00 +27°C° 0 mm 3 m/s 759 mmHg 68%
    10:00 +28°C° 0 mm 3 m/s 759 mmHg 66%
    11:00 +28°C° 0 mm 3 m/s 758 mmHg 64%
    12:00 +29°C° 0 mm 4 m/s 758 mmHg 61%
    13:00 +28°C° 0 mm 5 m/s 757 mmHg 64%
    14:00 +28°C° 0 mm 5 m/s 757 mmHg 67%
    15:00 +28°C° 0 mm 6 m/s 756 mmHg 69%
    16:00 +27°C° 0 mm 6 m/s 756 mmHg 72%
    17:00 +27°C° 0 mm 6 m/s 756 mmHg 76%
    18:00 +26°C° 0 mm 6 m/s 756 mmHg 79%
    19:00 +26°C° 0 mm 6 m/s 757 mmHg 78%
    20:00 +24°C° 0 mm 6 m/s 757 mmHg 78%
    21:00 +24°C° 0 mm 6 m/s 757 mmHg 78%
    22:00 +25°C° 0 mm 5 m/s 757 mmHg 80%
    23:00 +23°C° 0 mm 5 m/s 757 mmHg 83%

    27 Septembrie, Vineri

    Timp Temperatura Precipitaţii Vânt Presiune Umiditate
    00:00 +23°C° 0 mm 5 m/s 757 mmHg 86%
    01:00 +23°C° 0 mm 5 m/s 757 mmHg 87%
    02:00 +23°C° 0 mm 5 m/s 756 mmHg 87%
    03:00 +23°C° 0 mm 5 m/s 756 mmHg 88%
    04:00 +23°C° 0 mm 4 m/s 756 mmHg 89%
    05:00 +23°C° 0 mm 4 m/s 756 mmHg 89%
    06:00 +23°C° 0 mm 4 m/s 756 mmHg 90%
    07:00 +25°C° 0 mm 4 m/s 757 mmHg 85%
    08:00 +26°C° 0 mm 4 m/s 757 mmHg 79%
    09:00 +27°C° 0 mm 4 m/s 758 mmHg 74%
    10:00 +27°C° 0.1 mm 4 m/s 758 mmHg 74%
    11:00 +28°C° 0.1 mm 4 m/s 757 mmHg 74%
    12:00 +28°C° 0.1 mm 4 m/s 757 mmHg 74%
    13:00 +28°C° 0.1 mm 4 m/s 757 mmHg 73%
    14:00 +28°C° 0.1 mm 4 m/s 756 mmHg 73%
    15:00 +28°C° 0.1 mm 5 m/s 756 mmHg 73%
    16:00 +28°C° 0 mm 5 m/s 756 mmHg 76%
    17:00 +27°C° 0 mm 5 m/s 756 mmHg 79%
    18:00 +27°C° 0 mm 5 m/s 757 mmHg 81%
    19:00 +26°C° 0 mm 5 m/s 757 mmHg 82%
    20:00 +26°C° 0 mm 6 m/s 757 mmHg 84%
    21:00 +26°C° 0 mm 6 m/s 758 mmHg 85%
    22:00 +26°C° 0 mm 5 m/s 758 mmHg 85%
    23:00 +25°C° 0 mm 5 m/s 758 mmHg 86%
    Arată mai mult